Regional Weather Roundup
Issued by NWS

Home | Current Version | Previous Version | Graphics & Text | Print | Product List | Glossary On
Versions: 1 2 3 4 5 6 7 8 9 10 11 12 13 14 15 16 17 18 19 20 21 22 23 24 25 26 27 28 29 30 31 32 33 34 35 36 37 38 39 40 41 42 43 44 45 46 47 48 49 50
000
ASUS45 KCYS 171910
RWRWY

WYOMING REGIONAL WEATHER ROUNDUP
NATIONAL WEATHER SERVICE CHEYENNE WY
1200 PM MST WED DEC 17 2014

NOTE:  "FAIR" INDICATES FEW OR NO CLOUDS BELOW 12,000 FEET
WITH NO SIGNIFICANT WEATHER AND/OR OBSTRUCTIONS TO VISIBILITY.

WYZ001-172000-
YELLOWSTONE NATIONAL PARK

CITY           SKY/WX    TMP DP  RH WIND       PRES   REMARKS
LK YELLOWSTONE   N/A     25  19  78 VRB5      29.95F WCI  19
W YELLOWSTONE  NOT AVBL

$$
WYZ002>013-054>058-071-098>099-172000-
NORTHERN WYOMING

CITY           SKY/WX    TMP DP  RH WIND       PRES   REMARKS
JACKSON        PTSUNNY   27  25  93 CALM      29.98F
CODY           CLOUDY    25  21  86 NE7       29.91S WCI  17
GREYBULL       FAIR      22  17  81 S3        29.97F
WORLAND        PTSUNNY   15  11  83 CALM      29.96F
SHERIDAN       FAIR      20  15  81 CALM      29.95F
BUFFALO        FAIR      31  27  85 E5        29.91F WCI  26
GILLETTE       FAIR      23  18  81 CALM      29.92F
HULETT           N/A    N/A N/A N/A MISG        N/A
NEWCASTLE      FOG       19  19 100 CALM      29.97F VSB 3/4

$$
WYZ014>020-022>026-101>103-172000-
CENTRAL WYOMING

CITY           SKY/WX    TMP DP  RH WIND       PRES   REMARKS
BIG PINEY      CLOUDY    29  19  66 S5        29.98F WCI  24
PINEDALE       FAIR      30  21  69 W5        29.97F WCI  25
DUBOIS         FAIR      32  18  55 NW14      29.90F WCI  22
LANDER         FAIR      15  11  83 CALM      29.94F
RIVERTON       FOG       17  13  84 SW3       29.96F VSB<1/4
CASPER         FAIR      32  22  66 SW18      29.92F WCI  20
DOUGLAS        FAIR      28  19  69 CALM      29.92F

$$
WYZ021-027>030-104>119-172000-
SOUTHERN WYOMING

CITY           SKY/WX    TMP DP  RH WIND       PRES   REMARKS
EVANSTON       CLOUDY    33  20  58 VRB3      29.96F
KEMMERER       FAIR      34  19  55 W5        29.96F WCI  30
FORT BRIDGER   CLOUDY    32  24  73 CALM      30.00F
ROCK SPRINGS   FAIR      22  18  85 CALM      29.98F
DIXON          FAIR      23  18  81 CALM      30.01F
RAWLINS        FAIR      32  21  64 SW10      29.95F WCI  24
SARATOGA       CLOUDY    32  23  69 CALM      29.97F
LARAMIE        FAIR      33  24  69 S6        29.92F WCI  28
CHEYENNE       FAIR      44  22  41 S10       29.90F
TORRINGTON     FAIR      21  19  92 SE5       29.94F WCI  15
PINE BLUFFS    FAIR      41  27  56 CALM      29.92F

$$


USA.gov is the U.S. government's official web portal to all federal, state and local government web resources and services.